Regional Weather Roundup
Issued by NWS

Home | Current Version | Previous Version | Text Only | Print | Product List | Glossary On
Versions: 1 2 3 4 5 6 7 8 9 10 11 12 13 14 15 16 17 18 19 20 21 22 23 24 25 26 27 28 29 30 31 32 33 34 35 36 37 38 39 40 41 42 43 44 45 46 47 48 49 50
000
ASUS43 KTOP 301559
RWRKS

WEATHER ROUNDUP FOR KANSAS
NATIONAL WEATHER SERVICE GOODLAND KS
1100 AM CDT TUE AUG 30 2016

NOTE:  "FAIR" INDICATES FEW OR NO CLOUDS BELOW 12,000 FEET WITH NO
SIGNIFICANT WEATHER AND/OR OBSTRUCTIONS TO VISIBILITY.

KSZ001>006-013>018-027>032-041>047-301700-
NORTHWEST KANSAS

CITY           SKY/WX    TMP DP  RH WIND       PRES   REMARKS
GOODLAND       CLOUDY    67  62  84 CALM      30.29S
HAYS           CLOUDY    70  63  78 CALM      30.23S
HILL CITY      CLOUDY    71  67  87 S3        30.24S
RUSSELL        PTSUNNY   75  70  84 CALM      30.20F
$$

KSZ061>065-074>080-084>089-301700-
SOUTHWEST KANSAS

CITY           SKY/WX    TMP DP  RH WIND       PRES   REMARKS
DODGE CITY     CLOUDY    71  68  90 NE5       30.25R
ELKHART          N/A     67  63  87 S5          N/A
GARDEN CITY    LGT RAIN  68  67  96 CALM      30.26R FOG
GREAT BEND     CLOUDY    73  64  73 NE3       30.21S
LIBERAL        CLOUDY    72  64  78 N5        30.27R
$$

KSZ066>073-081>083-090>101-301700-
SOUTHEAST KANSAS

CITY           SKY/WX    TMP DP  RH WIND       PRES   REMARKS
CHANUTE        SUNNY     84  73  69 CALM      30.15F
COFFEYVILLE    SUNNY     83  73  72 NE6       30.14S
HUTCHINSON     PTSUNNY   80  71  74 E6        30.18S
MEDICINE LODGE   N/A     77  70  79 SE3       30.18R
NEWTON         CLOUDY    80  71  74 MISG      30.19S
PARSONS        SUNNY     84  72  67 VRB3      30.16S
WICHITA INTL   MOSUNNY   84  69  60 CALM      30.16S
WICHITA JABRA  SUNNY     81  72  74 SE5       30.17S
WINFIELD       SUNNY     83  71  67 VRB3      30.17S
$$

KSZ007>012-019>026-033>040-048>060-102>105-301700-
NORTHEAST KANSAS

CITY           SKY/WX    TMP DP  RH WIND       PRES   REMARKS
CONCORDIA      PTSUNNY   75  69  81 NE6       30.21R
EMPORIA        MOSUNNY   79  73  82 E3        30.17S
LAWRENCE       CLOUDY    75  72  90 CALM      30.17R
MANHATTAN      PTSUNNY   78  72  81 NE6       30.18R
OLATHE IND     CLOUDY    77  71  82 E3        30.18R
OLATHE EXE     CLOUDY    76  71  85 CALM      30.18R
SALINA         PTSUNNY   76  72  87 CALM      30.19R
TOPEKA BILLARD CLOUDY    81  72  74 NW7       30.17R
TOPEKA FORBES  CLOUDY    83  72  69 CALM      30.18R
$$




USA.gov is the U.S. government's official web portal to all federal, state and local government web resources and services.